Tracking 20942 objects as of 10-Jul-2020
HD Live streaming from Space Station
objects crossing your sky now

FACSAT 1

Track FACSAT 1 now!
10-day predictions


NORAD ID: 43721
Int'l Code: 2018-096C
Perigee: 478.3 km
Apogee: 503.9 km
Inclination: 97.4 °
Period: 94.3 minutes
Semi major axis: 6862 km
RCS: Unknown
Launch date: November 29, 2018
Source: (TBD)
Launch site: SRIHARIKOTA (SRI)
aabbcc
Your satellite tracking list
Your tracking list is empty




NASA's NSSDC Master Catalog

Two Line Element Set (TLE):
1 43721U 18096C   20192.14281512  .00000970  00000-0  38916-4 0  9996
2 43721  97.4198 265.5939 0018712  46.8805 313.3995 15.27277829 89859
Source of the keplerian elements: AFSPC